This demonstration page uses our WeatherBlox Daily Observations layout. Learn more.

Left ArrowRight Arrow

41.12389, -100.76542

Hourly Observations for May 20, 2022

Temp ( °F °C ) Dew Point ( °F °C ) Humidity (%) Winds ( mph kmh ) Pressure ( in mb ) Visibility ( mi km ) Precip ( " mm )
12:53 am 00:53 Clear 49 9.4 35 1.7 59 59 NNE 10 17 29.49 999 10 16 0.00 0.00
1:53 am 01:53 Partly Cloudy 47 8.3 36 2.2 66 66 NNW 7 11 29.49 999 10 16 0.00 0.00
2:53 am 02:53 Mostly Cloudy 44 6.7 37 2.8 76 76 WNW 9 15 29.52 1000 10 16 0.00 0.00
3:53 am 03:53 Cloudy 46 7.8 37 2.8 71 71 NW 8 13 29.51 999 10 16 0.00 0.00
4:53 am 04:53 Cloudy 47 8.3 38 3.3 71 71 WNW 10 17 29.53 1000 10 16 0.00 0.00
5:53 am 05:53 Cloudy 47 8.3 37 2.8 69 69 WNW 9 15 29.54 1000 10 16 0.00 0.00
6:53 am 06:53 Cloudy 48 8.9 37 2.8 66 66 W 7 11 29.59 1002 10 16 0.00 0.00
7:53 am 07:53 Cloudy 50 10 37 2.8 61 61 WNW 10 17 29.64 1004 10 16 0.00 0.00
8:53 am 08:53 Cloudy 51 10.6 35 1.7 54 54 W 10 17 29.66 1005 10 16 0.00 0.00
9:53 am 09:53 Cloudy 51 10.6 37 2.8 59 59 WNW 14 22 29.70 1006 10 16 0.00 0.00
10:53 am 10:53 Cloudy 53 11.7 36 2.2 52 52 WNW 16 26 29.72 1006 10 16 0.00 0.00
11:53 am 11:53 Cloudy 55 12.8 35 1.7 47 47 WNW 13 20 29.73 1007 10 16 0.00 0.00
12:53 pm 12:53 Cloudy 55 12.8 34 1.1 45 45 NW 16 26 29.75 1008 10 16 0.00 0.00
1:53 pm 13:53 Cloudy 56 13.3 34 1.1 44 44 WNW 20 31 29.77 1008 10 16 0.00 0.00
2:53 pm 14:53 Cloudy 55 12.8 35 1.7 47 47 WNW 18 30 29.80 1009 10 16 0.00 0.00
3:53 pm 15:53 Cloudy 54 12.2 30 -1.1 40 40 NW 18 30 29.82 1010 10 16 0.00 0.00
4:53 pm 16:53 Cloudy 53 11.7 31 -0.6 43 43 WNW 18 30 29.84 1010 10 16 0.00 0.00
5:53 pm 17:53 Cloudy 53 11.7 30 -1.1 41 41 WNW 15 24 29.86 1011 10 16 0.00 0.00
6:53 pm 18:53 Mostly Cloudy 54 12.2 31 -0.6 42 42 NW 12 19 29.88 1012 10 16 0.00 0.00
7:53 pm 19:53 Mostly Cloudy 52 11.1 31 -0.6 45 45 N 13 20 29.92 1013 10 16 0.00 0.00
8:53 pm 20:53 Mostly Sunny 50 10 29 -1.7 44 44 N 13 20 29.97 1015 10 16 0.00 0.00
9:53 pm 21:53 Mostly Clear 48 8.9 30 -1.1 50 50 N 6 9 30.02 1017 10 16 0.00 0.00
10:53 pm 22:53 Partly Cloudy 47 8.3 31 -0.6 54 54 N 10 17 30.04 1017 10 16 0.00 0.00
11:53 pm 23:53 Partly Cloudy 47 8.3 31 -0.6 54 54 N 8 13 30.04 1017 10 16 0.00 0.00

Powered by AerisWeather